Change the Weather History Date:

Wednesday, December 12, 2012

  Actual Average Record
Temperature  
Mean Temperature 44 °F -  
Max Temperature 57 °F 56 °F 72 °F (2004)
Min Temperature 32 °F 37 °F 21 °F (2000)
Degree Days  
Heating Degree Days 20    
Moisture  
Dew Point 20 °F    
Average Humidity 40    
Maximum Humidity 64    
Minimum Humidity 21    
Precipitation  
Precipitation 0.00 in - - ()
Sea Level Pressure  
Sea Level Pressure 30.26 in    
Wind  
Wind Speed 6 mph (SE)    
Max Wind Speed 17 mph    
Max Gust Speed 18 mph    
Visibility 10 miles    
Events      
Averages and records for this station are not official NWS values.
T = Trace of Precipitation, MM = Missing Value Source: NWS Daily Summary

Daily Weather History Graph

Daily Weather History Graph

Search for Another Location

Airport or City:

Trip Planner

Search our weather history database for the weather conditions in past years. The results will help you decide how hot, cold, wet, or windy it might be!

Date:

Astronomy

Dec. 12, 2012 Rise Set
Actual Time 7:20 AM CST 5:21 PM CST
Civil Twilight 6:53 AM CST 5:49 PM CST
Nautical Twilight 6:22 AM CST 6:19 PM CST
Astronomical Twilight 5:52 AM CST 6:50 PM CST
Moon 6:27 AM CST (12/12) 4:59 PM CST (12/12)
Length of Visible Light 10h 55m
Length of Day
10h 00m
Waning Crescent, 1% of the Moon is Illuminated
Dec 12
Waning Crescent
Dec 13
New
Dec 19
First Quarter
Dec 28
Full
Jan 4
Last Quarter

Hourly Weather History & Observations

Time (CST) Temp. Windchill Dew Point Humidity Pressure Visibility Wind Dir Wind Speed Gust Speed Precip Events Conditions
12:53 AM 34.0 °F 31.0 °F 19.0 °F 54% 30.25 in 10.0 mi ESE 3.5 mph - N/A   Clear
1:53 AM 35.1 °F 32.2 °F 19.0 °F 52% 30.25 in 10.0 mi SE 3.5 mph - N/A   Clear
2:53 AM 33.1 °F - 21.0 °F 61% 30.25 in 10.0 mi Calm Calm - N/A   Clear
3:53 AM 32.0 °F - 21.0 °F 64% 30.26 in 10.0 mi Calm Calm - N/A   Clear
4:53 AM 34.0 °F - 19.0 °F 54% 30.26 in 10.0 mi Calm Calm - N/A   Clear
5:53 AM 33.8 °F - 19.4 °F 56% 30.27 in 10.0 mi Calm Calm - N/A   Clear
6:53 AM 33.1 °F 30.0 °F 19.0 °F 56% 30.30 in 10.0 mi SE 3.5 mph - N/A   Clear
7:53 AM 33.1 °F 27.7 °F 21.0 °F 61% 30.31 in 10.0 mi SSE 5.8 mph - N/A   Partly Cloudy
8:53 AM 39.9 °F 35.8 °F 23.0 °F 51% 30.33 in 10.0 mi SE 5.8 mph - N/A   Partly Cloudy
9:53 AM 44.1 °F 38.1 °F 21.9 °F 42% 30.34 in 10.0 mi SSE 11.5 mph - N/A   Clear
10:53 AM 48.0 °F - 21.9 °F 36% 30.33 in 10.0 mi SSE 9.2 mph - N/A   Clear
11:53 AM 52.0 °F - 21.9 °F 31% 30.32 in 10.0 mi SSE 9.2 mph - N/A   Clear
12:53 PM 55.0 °F - 19.9 °F 25% 30.27 in 10.0 mi SSE 9.2 mph - N/A   Clear
1:53 PM 57.0 °F - 18.0 °F 22% 30.24 in 10.0 mi SE 10.4 mph - N/A   Clear
2:53 PM 57.9 °F - 18.0 °F 21% 30.22 in 10.0 mi SSE 13.8 mph 18.4 mph N/A   Clear
3:53 PM 57.9 °F - 19.0 °F 22% 30.21 in 10.0 mi SSE 12.7 mph - N/A   Clear
4:53 PM 55.9 °F - 19.0 °F 24% 30.20 in 10.0 mi SSE 13.8 mph - N/A   Clear
5:53 PM 51.8 °F - 19.4 °F 28% 30.20 in 10.0 mi SE 12.7 mph - N/A   Clear
6:53 PM 50.0 °F - 19.0 °F 29% 30.23 in 10.0 mi SE 11.5 mph - N/A   Clear
7:53 PM 48.9 °F - 19.9 °F 32% 30.24 in 10.0 mi SE 11.5 mph - N/A   Clear
8:53 PM 46.0 °F 42.5 °F 19.0 °F 34% 30.25 in 10.0 mi SSE 6.9 mph - N/A   Clear
9:53 PM 48.9 °F - 19.9 °F 32% 30.26 in 10.0 mi SSE 17.3 mph - N/A   Clear
10:53 PM 46.9 °F - 21.0 °F 36% 30.26 in 10.0 mi SSE 11.5 mph - N/A   Clear
11:53 PM 45.0 °F 40.1 °F 21.0 °F 39% 30.26 in 10.0 mi SE 9.2 mph - N/A   Clear